Regional Weather Roundup
Issued by NWS Jackson, KY

Home | Current Version | Previous Version | Graphics & Text | Print | Product List | Glossary On
Versions: 1 2 3 4 5 6 7 8 9 10 11 12 13 14 15 16 17 18 19 20 21 22 23 24 25 26 27
000
ASUS43 KJKL 302010
RWRJKL

EAST KENTUCKY HOURLY WEATHER ROUNDUP
NATIONAL WEATHER SERVICE JACKSON KY
400 PM EDT FRI SEP 30 2016

NOTE: "FAIR" INDICATES FEW OR NO CLOUDS BELOW 12,000 FEET WITH
NO SIGNIFICANT WEATHER AND/OR OBSTRUCTIONS TO VISIBILITY.

* THESE REPORTS ARE NOT UNDER NWS QUALITY CONTROL AND MAY NOT
  REPORT WEATHER SUCH AS PRECIPITATION AND FOG.

KYZ079-080-083-085-087-088-110-112-115-119-120-302100
...EASTERN KENTUCKY...

CITY           SKY/WX    TMP DP  RH WIND       PRES   REMARKS
JACKSON        CLOUDY    63  51  65 S3        30.02F
LONDON         SUNNY     64  45  49 VRB6      30.03F
SOMERSET*      CLOUDY    63  50  63 W10       30.04S
MONTICELLO*    CLOUDY    61  53  75 W10G20    30.05S
WILLIAMSBURG*  CLEAR     66  50  55 CALM      30.03S
MIDDLESBORO*   CLOUDY    65  51  59 N3        30.03R
HARLAN APT*    CLOUDY    64  46  52 W6        30.03R
PIKE CO APT*   PTSUNNY   63  55  75 W7        30.01F
BIG SANDY APT* MOCLDY    64  55  71 W7        30.01F
MOREHEAD APT*  PTCLDY    64  52  63 N5        30.03F
ASHLAND*       CLOUDY    64  59  82 W6        29.99S
$$

KYZ035-036-041-042-044-050-067-078-099-302100
...CENTRAL KENTUCKY...

CITY           SKY/WX    TMP DP  RH WIND       PRES   REMARKS
MT STERLING*   MOSUNNY   66  52  59 NW3       30.02F
FLEMING/MASON* PTSUNNY   63  52  67 W5        30.02F
DANVILLE*      CLOUDY    61  50  67 S3        30.03F
LEXINGTON      MOSUNNY   63  50  62 SW7       30.02F
FRANKFORT      CLOUDY    64  50  60 S7        30.00F
LOUISVILLE     LGT RAIN  62  53  72 S14       30.01F
LEBANON*       CLOUDY    59  54  82 S5        30.03S
GLASGOW*       CLOUDY    59  59 100 S6        30.01F
BOWLING GREEN  PTSUNNY   63  57  81 W5        30.01S
$$

KYZ091>093-OHZ055-061-077-WVZ005-015-034-035-042-302100
...SOUTHERN OHIO/WEST VIRGINIA...

CITY           SKY/WX    TMP DP  RH WIND       PRES   REMARKS
COVINGTON      PTSUNNY   65  55  70 S5        29.99F
COLUMBUS       LGT RAIN  63  63 100 NE8       29.99F
DAYTON         CLOUDY    61  58  90 E12       30.01S
WILMINGTON     CLOUDY    65  59  81 W6        30.00F
HUNTINGTON     PTSUNNY   66  56  70 SW3       29.99F
CHARLESTON     CLOUDY    63  58  83 W8        29.99S
PINEVILLE*     CLOUDY    63  55  76 MISG      30.06S
BECKLEY        CLOUDY    67  58  72 W12G18    30.00R
BLUEFIELD      MOSUNNY   64  56  75 W12       30.02S
LOGAN CO APT*  CLOUDY    59  57  94 CALM      30.02S
$$

VAZ002-007-008-TNZ017-027-036-066-071-302100
...SOUTHWEST VIRGINIA/EAST TENNESSEE...

CITY           SKY/WX    TMP DP  RH WIND       PRES   REMARKS
WISE*          MOSUNNY   68  43  40 SW9       30.04S
JONESVILLE*      N/A     70  46  43 SW5       30.04S
ABINGDON*      CLOUDY    65  55  68 W3        30.02F
BRISTOL        PTSUNNY   69  53  56 N5        30.01F
MORRISTOWN*    PTCLDY    68  46  45 CALM      30.01S
SEVIERVILLE*   PTCLDY    70  45  40 VRB7      30.00S
KNOXVILLE      MOSUNNY   70  44  39 SW7       30.01F
OAK RIDGE      PTSUNNY   70  46  42 VRB5      30.03S
CROSSVILLE     MOSUNNY   63  49  60 W10       30.05F
NASHVILLE      CLOUDY    65  52  62 SW5       30.03F
$$

...KEY TO REMARKS...
VSB - VISIBILITY IN MILES
WCI - WIND CHILL INDEX
HX  - HEAT INDEX

$$




USA.gov is the U.S. government's official web portal to all federal, state and local government web resources and services.